STARLINK-1681 (46559 NORAD) Tracking and Keplerian Element Data

This shows tracking and keplerian element data for the satellite.

Feedback or suggestion? Click here.




ElementValue
Catalog46559
NameSTARLINK-1681
Epoch Orbit177
Epoch Day304.91667824
Epoch Year2020
RAAN321.9236
Inclination53.002
Eccentricity0.0001233
Argument of Perigee76.5773
Mean Anonmoly188.465
Mean Motion15.62672994
Decay Rate0.00079362
L11 46559U 20070AD 20304.91667824 .00079362 00000-0 86679-3 0 9996
L22 46559 53.0020 321.9236 0001233 76.5773 188.4650 15.62672994 1779

Live tracking and technical data element details for STARLINK-1681 (NORAD 46559). STARLINK-1681 can be tracked NOW for your location showing map with azimuth and elevation plus other details from your city location.

Track the satellite on the map from your city or location and see movement details for azimuth, elevation, latitude, longitude, range, height, and movement on the map or in text.







IsCatalogInMostPopularTable: catalog: 46559, numindb: 3
Update: records affected: 1



GetName: 46559 STARLINK-1681

Hit Count: updated at: Sat, 31 Oct 2020 11:39:34 GMT